Weather in Yakhnyky

Ukraine / Poltava Region     50°25′27″N   33°09′00″E
temp.,
°C
wind,
m/s
gust,
m/s
humid.,
%
clouds,
%
prec.,
mm/h
press.,
hPa
HPBL,
m
15 april, thu
thu1500:00+10s2288100 0.6 101469
03:00+9sse129093 1.3 101358
06:00+9sw369499 0.6 1012321
09:00+10sse3483100 0.7 1013320
12:00+11s456999 0.1 1013855
15:00+13se356485 0.2 10121235
18:00+11sse12708 0.1 1011601
21:00+9ese4789100 0.8 1011255
16 april, fri
fri1600:00+8sse4894100 2.9 1011515
03:00+7sse5891100 4.7 1011447
06:00+7se5992100 1.6 1011574
09:00+7se5893100 2.9 1013528
12:00+9se5884100 0.2 1014745
15:00+12se4668100 0.7 10131281
18:00+10s467892 1.2 1014538
21:00+8sw238991 1.6 1016132
17 april, sat
sat1700:00+7sw249270 0.1 1017227
03:00+7sw239166 0.1 1017141
06:00+6sw228866 0.0 101928
09:00+8sw127523 0.0 1020512
12:00+11ssw2259100 0.0 10201433
15:00+11sw226083 0.1 1021826
18:00+11w225754 0.0 10211235
21:00+9w347364 0.0 102183
18 april, sun
sun1800:00+6w378632 0.0 1022149
03:00+5w358723 0.0 102196
06:00+6w238898 0.0 102185
09:00+8wsw2388100 0.0 1021177
12:00+9wnw118574 0.0 1022276
15:00+14ene346444 0.1 10221236
18:00+12ene477196 0.2 1022416
21:00+10ene4107776 0.3 1023329
19 april, mon
mon1900:00+8e398841 0.0 1025253
03:00+7e38905 0.0 1025175
06:00+6e38895 0.0 1025165
09:00+10ese46725 0.0 1026523
12:00+14e6849100 0.0 10251632
15:00+14ese794989 0.0 10241807
18:00+14e5953100 0.0 10231245
21:00+12ese61162100 0.0 1022562